Wind_Speed
24 24 24 24 25 30 31 29 25 24 22 24 20 17 16 16 16 15 15 16 17 18 20 19 17 16 12 5 4 2 5 2 5 10 10 6 3 2 3 3 2 3 6 9 20 13 7
28 26 26 25 24 23 25 29 29 27 24 23 23 20 18 17 16 16 15 16 17 18 19 18 15 14 9 5 1 2 4 1 3 8 8 6 1 6 9 6 3 9 8 6 7 12 10
34 32 29 28 27 24 23 22 24 28 25 25 23 21 20 17 17 16 15 17 17 18 18 16 14 14 12 13 6 6 3 2 2 4 6 3 4 7 9 6 8 7 2 4 1 8 4
37 36 35 32 30 28 26 22 20 22 25 26 25 22 21 17 16 16 16 16 18 18 17 15 13 13 9 4 14 11 8 6 5 5 7 6 6 11 4 9 8 3 5 4 0 6 4
37 38 37 37 35 32 29 27 22 21 22 23 23 24 21 17 16 16 16 16 18 18 16 14 11 8 10 7 14 9 12 9 6 7 10 8 4 3 4 2 4 6 3 3 2 5 6
39 37 37 38 37 37 34 31 27 23 19 22 20 22 19 17 16 16 16 16 18 16 13 12 12 7 8 3 8 12 12 12 11 7 9 3 1 2 3 3 1 3 2 2 5 4 5
45 43 40 37 34 37 37 34 31 26 22 22 22 19 18 17 17 16 15 11 9 5 6 9 2 7 10 5 6 14 12 13 8 4 2 1 4 4 6 6 3 5 1 2 4 6 3
41 44 43 41 37 34 33 36 33 30 26 23 22 20 15 17 17 15 13 8 6 3 11 16 19 26 27 26 8 9 11 11 7 4 2 3 3 8 5 1 3 1 4 5 5 3 5
48 42 44 44 41 38 35 33 30 31 29 26 24 20 16 17 15 15 11 4 9 9 7 12 16 19 21 15 10 12 10 12 4 5 6 5 5 3 2 3 4 4 1 3 4 3 5
52 51 42 45 44 42 39 36 33 31 31 30 26 23 16 17 15 16 6 2 5 7 3 6 5 8 14 9 5 18 12 13 2 10 5 5 5 3 1 1 4 5 2 4 3 1 3
50 54 56 42 45 43 41 37 32 26 30 30 29 25 21 19 9 8 8 6 10 4 3 4 5 3 18 17 5 15 21 11 6 5 6 8 3 4 4 7 4 8 5 4 1 3 5
48 49 57 55 45 46 42 40 35 32 25 24 27 27 21 23 24 10 9 2 4 5 7 5 9 7 7 10 4 2 16 15 6 5 3 6 3 6 8 3 5 2 2 7 5 3 2
49 46 55 56 52 47 45 41 38 33 27 25 25 28 27 27 25 16 13 5 2 4 4 5 6 7 6 6 4 4 4 5 6 3 3 2 2 3 4 1 1 3 5 2 2 3 4
55 48 47 53 56 50 46 43 42 34 30 26 25 29 30 28 25 14 11 3 9 7 8 6 2 4 8 6 6 6 5 4 2 3 3 5 4 3 2 3 5 3 6 5 3 3 3
59 54 46 51 59 59 47 47 41 35 29 26 23 29 28 32 27 17 12 11 6 6 4 4 3 5 4 4 6 6 8 7 9 8 7 5 5 0 2 4 5 1 2 3 6 3 3
65 59 52 46 52 64 52 51 44 38 32 30 28 31 29 34 29 22 8 16 7 7 3 5 8 5 8 7 7 7 8 5 6 10 8 7 1 1 4 2 2 4 5 2 3 2 3
62 66 55 47 48 58 59 52 48 36 37 35 27 15 22 33 31 15 13 12 15 23 4 3 4 3 7 7 9 6 7 5 6 5 6 6 4 4 2 5 8 0 2 4 4 4 4
65 68 60 50 47 54 49 55 49 36 41 38 27 7 24 39 13 11 15 8 9 20 12 4 3 6 5 8 8 9 11 10 15 15 9 7 6 4 8 3 2 4 5 5 4 4 2
61 69 65 53 50 54 46 57 48 41 42 45 22 13 30 41 12 16 9 19 16 9 7 6 5 4 1 7 6 7 7 7 15 9 9 8 1 2 7 5 1 2 4 5 4 3 6
57 70 69 57 52 57 57 47 41 41 43 40 18 8 16 33 38 17 19 12 23 17 15 4 3 3 2 3 2 7 5 2 7 2 16 13 4 8 9 8 4 3 5 5 5 3 4
58 70 71 59 55 56 61 51 44 42 48 48 16 11 16 15 24 21 19 15 19 16 17 16 6 8 3 4 1 4 3 4 3 9 1 4 6 5 3 4 4 4 5 6 7 6 6
53 73 71 59 57 56 59 58 48 46 52 48 15 10 25 5 27 25 17 23 25 23 7 10 16 6 12 9 8 9 6 4 6 2 3 2 3 4 3 2 3 4 7 7 5 3 7
50 75 70 60 55 53 54 55 58 50 57 31 36 18 22 16 18 19 28 23 27 17 21 20 19 11 5 11 21 21 9 13 12 10 5 5 7 4 4 2 2 6 8 8 6 5 6
56 71 68 59 54 51 53 50 50 55 62 38 38 16 9 10 13 21 20 21 24 25 20 21 35 4 6 7 12 14 18 20 14 8 5 6 5 3 3 3 2 7 2 4 5 3 4
71 67 62 56 53 54 56 54 48 53 56 63 26 26 6 3 16 13 23 25 21 28 19 24 17 34 16 12 3 5 5 5 4 7 5 3 5 3 4 4 4 5 4 7 6 4 2
66 63 54 51 52 52 54 51 50 53 52 60 35 38 12 2 11 18 20 28 18 16 12 18 31 26 13 3 3 5 5 5 2 4 6 6 6 4 3 4 8 8 4 5 6 2 4
61 52 49 49 51 51 50 48 51 48 49 57 22 27 17 3 6 31 15 19 27 17 7 7 12 10 21 3 3 3 3 5 7 10 6 3 3 5 3 3 7 7 5 10 5 7 17
46 45 44 44 46 45 48 46 46 44 44 50 39 29 16 1 14 5 22 22 26 30 12 9 7 2 3 4 4 4 3 6 4 6 7 7 7 4 3 2 6 8 6 8 7 11 24
35 38 40 42 42 42 39 41 40 41 44 40 29 30 22 10 8 14 15 26 23 41 32 20 6 8 12 3 2 3 3 2 5 3 2 2 6 6 8 6 4 8 2 8 25 29 22
Wind_Direction
262 263 262 261 258 253 254 257 257 259 265 263 267 276 289 300 306 303 304 308 313 318 319 323 322 318 325 314 271 20 9 359 160 160 156 137 133 218 255 233 248 212 273 292 233 196 111
257 256 258 260 259 260 258 255 256 259 264 266 265 271 278 290 300 304 302 306 310 314 317 319 318 311 312 274 200 132 57 286 170 161 174 192 167 307 288 262 163 274 295 253 204 170 148
257 255 255 254 257 256 258 260 261 255 254 262 267 267 269 282 295 303 301 305 306 311 315 312 309 304 288 250 216 206 172 290 259 212 225 282 325 334 313 302 308 297 39 50 33 160 124
258 258 256 253 253 255 255 254 258 262 248 255 264 266 270 273 290 299 299 302 303 308 309 302 302 299 267 257 215 222 230 217 232 234 257 281 334 305 257 303 328 48 37 52 134 159 144
257 254 254 256 256 252 250 250 247 251 254 247 257 260 263 271 288 299 302 302 300 303 296 289 290 284 270 237 221 226 250 239 225 242 265 295 316 292 328 26 7 359 162 158 160 219 136
259 259 254 249 250 254 255 252 244 242 245 247 245 259 259 270 284 297 303 302 300 296 280 269 260 291 253 216 220 245 249 252 248 285 260 250 29 43 21 65 205 288 350 71 153 182 167
262 259 255 254 253 245 247 253 255 246 239 236 234 249 264 269 280 294 302 312 314 288 263 240 175 248 282 254 272 231 239 229 210 192 162 27 77 227 225 204 177 264 100 155 191 193 114
253 259 255 254 250 252 247 242 246 249 243 240 233 231 248 267 273 288 298 304 303 355 302 270 263 260 259 270 288 227 227 199 175 197 189 14 229 227 250 181 200 15 344 350 308 223 147
247 245 255 255 252 249 246 245 240 240 237 235 235 226 230 246 262 276 283 282 276 256 271 281 243 240 241 231 222 228 199 190 157 162 209 176 229 164 229 155 66 336 277 271 253 358 47
249 244 242 249 253 248 249 244 241 236 234 229 230 227 220 241 258 256 235 256 280 193 325 272 223 235 189 184 238 222 201 202 186 206 178 239 275 258 68 157 89 331 96 249 257 111 155
249 245 243 235 245 249 244 244 244 240 237 229 223 218 216 224 234 218 165 100 121 131 355 240 189 174 169 173 148 216 221 198 193 193 118 238 206 194 214 213 124 241 338 282 65 109 103
256 247 244 238 235 243 244 239 237 236 233 231 216 207 209 221 224 213 181 123 155 54 247 292 165 157 143 190 199 145 181 205 249 175 194 224 209 162 201 249 174 263 74 23 37 61 49
251 250 239 240 232 233 238 234 231 231 231 226 216 201 205 218 225 221 222 166 122 183 318 231 188 157 170 163 211 152 141 154 174 127 174 330 283 13 54 337 329 95 78 328 357 13 215
247 248 242 240 233 232 230 233 228 229 227 222 216 199 205 215 218 215 204 216 214 200 248 300 201 116 180 149 216 186 149 208 241 116 131 157 306 152 174 176 170 191 159 157 218 189 255
248 242 245 238 232 232 227 230 227 218 215 211 209 207 211 208 204 197 191 212 208 200 217 242 87 140 224 200 159 149 187 194 202 173 162 139 256 18 216 206 138 149 154 174 107 358 49
242 242 237 239 233 229 229 226 221 216 205 195 203 207 219 201 196 207 222 227 221 231 349 343 198 177 183 196 162 156 175 208 215 188 154 201 127 147 314 350 359 144 163 79 17 150 244
237 238 236 234 232 225 223 217 213 214 201 189 194 202 218 191 198 189 214 211 224 246 309 303 323 228 210 173 178 176 191 245 216 180 133 144 128 267 136 196 188 112 205 57 119 133 177
234 230 232 226 226 219 213 207 214 199 196 190 186 205 188 184 186 202 221 195 213 236 238 291 317 241 231 185 191 194 202 207 187 153 165 197 144 189 215 254 221 174 191 139 127 212 171
234 224 226 219 220 213 200 202 198 192 190 188 186 186 181 184 200 210 200 212 226 216 210 208 249 242 246 205 186 196 198 216 168 151 163 179 182 69 335 347 4 222 204 106 116 77 190
230 220 219 214 211 211 204 195 191 193 196 187 176 178 181 192 214 206 199 200 216 222 249 282 286 284 261 257 210 182 161 169 162 262 180 134 129 170 208 204 161 199 246 169 149 125 190
223 214 216 210 206 207 210 208 203 210 193 195 196 203 188 190 209 207 198 196 203 212 208 204 268 219 227 318 131 184 143 137 63 143 132 131 159 150 246 172 180 202 228 176 202 208 163
221 208 209 206 202 203 207 206 204 204 193 196 197 201 183 198 202 198 203 210 205 202 190 201 223 186 219 217 208 200 152 163 181 154 157 320 161 130 150 39 7 224 223 215 229 229 267
213 201 204 201 198 199 200 202 204 187 193 196 204 216 183 207 187 187 211 207 211 196 224 234 212 222 206 223 236 258 198 176 172 150 162 123 132 117 224 59 13 324 222 225 223 213 189
202 195 199 194 192 193 191 192 189 187 201 195 200 203 217 193 190 205 194 203 207 211 214 197 235 220 238 282 138 103 78 72 60 54 101 127 100 82 185 63 325 243 272 223 191 290 224
188 188 190 185 187 191 191 186 183 195 204 202 196 208 226 191 205 200 199 202 213 218 229 225 234 233 214 172 62 65 354 35 15 37 35 94 122 104 143 189 290 296 179 158 169 238 318
178 183 183 180 183 186 187 188 191 199 203 209 219 219 250 295 212 190 188 198 204 209 223 238 234 241 188 104 113 157 174 161 188 39 38 56 58 118 142 171 210 226 228 183 117 301 205
170 171 172 178 184 187 186 189 195 200 201 207 219 203 218 281 238 187 187 197 202 198 211 195 173 178 199 147 124 166 206 167 158 161 177 77 26 154 128 206 286 246 197 148 133 228 175
159 165 174 179 183 187 189 193 198 200 200 204 210 200 209 344 286 246 197 187 200 209 201 175 164 205 62 169 157 206 125 209 105 164 175 161 145 180 92 83 271 194 138 164 203 143 164
157 167 173 179 180 184 187 193 194 192 199 201 204 199 211 234 269 287 247 228 224 211 197 194 204 157 178 130 185 118 100 81 136 202 153 193 179 178 176 209 240 195 213 183 156 158 166
Height
1526 1527 1528 1527 1527 1528 1528 1529 1530 1530 1530 1531 1530 1530 1529 1527 1527 1526 1524 1522 1521 1518 1515 1512 1511 1508 1507 1505 1503 1500 1499 1500 1499 1499 1501 1502 1501 1503 1502 1499 1499 1498 1492 1490 1487 1490 1493
1519 1520 1521 1523 1523 1523 1523 1523 1525 1526 1527 1527 1526 1527 1526 1525 1524 1523 1522 1520 1518 1516 1513 1510 1509 1508 1506 1506 1501 1500 1500 1501 1500 1500 1501 1501 1501 1501 1500 1497 1497 1492 1491 1487 1487 1490 1497
1513 1514 1514 1515 1517 1518 1518 1519 1520 1521 1523 1524 1523 1523 1523 1522 1522 1521 1519 1519 1516 1514 1511 1508 1507 1506 1503 1499 1499 1499 1499 1501 1500 1501 1501 1501 1501 1502 1500 1495 1493 1490 1488 1489 1491 1491 1498
1506 1507 1508 1509 1510 1512 1513 1513 1515 1516 1516 1520 1520 1520 1519 1519 1519 1518 1517 1516 1514 1511 1509 1506 1505 1504 1498 1496 1497 1497 1499 1500 1500 1500 1501 1501 1501 1500 1499 1496 1491 1492 1493 1501 1493 1494 1498
1498 1499 1501 1503 1505 1506 1506 1508 1509 1511 1513 1512 1516 1517 1515 1516 1516 1516 1514 1514 1511 1508 1507 1504 1504 1503 1495 1494 1495 1496 1498 1499 1500 1500 1500 1500 1499 1500 1498 1499 1504 1500 1505 1501 1499 1494 1494
1489 1491 1492 1493 1497 1499 1502 1503 1504 1505 1508 1509 1509 1514 1512 1513 1513 1513 1513 1511 1508 1505 1503 1502 1501 1504 1493 1493 1492 1493 1496 1497 1499 1498 1500 1499 1499 1501 1503 1506 1518 1506 1503 1499 1501 1497 1494
1480 1482 1484 1486 1488 1490 1493 1497 1501 1502 1503 1505 1505 1509 1510 1510 1511 1511 1512 1510 1509 1505 1500 1496 1494 1492 1489 1491 1490 1491 1493 1495 1498 1497 1501 1498 1504 1508 1501 1499 1497 1497 1497 1500 1497 1493 1496
1469 1473 1475 1479 1481 1484 1484 1487 1493 1496 1499 1501 1502 1503 1505 1508 1509 1510 1510 1509 1508 1507 1499 1490 1489 1487 1487 1490 1491 1488 1491 1495 1495 1498 1499 1502 1505 1494 1493 1493 1497 1495 1497 1500 1494 1490 1491
1458 1459 1466 1469 1473 1477 1478 1480 1484 1489 1491 1495 1501 1500 1502 1505 1507 1508 1507 1507 1505 1504 1502 1483 1479 1480 1482 1487 1486 1484 1488 1490 1491 1497 1500 1502 1492 1489 1489 1492 1495 1497 1498 1500 1500 1494 1495
1445 1450 1453 1456 1464 1469 1472 1474 1477 1481 1484 1488 1495 1498 1500 1505 1507 1505 1505 1504 1501 1501 1505 1484 1476 1472 1477 1482 1482 1481 1485 1489 1491 1494 1497 1498 1488 1488 1490 1490 1492 1504 1492 1494 1495 1500 1512
1432 1437 1444 1443 1451 1458 1464 1469 1471 1474 1479 1481 1488 1493 1498 1501 1502 1503 1504 1502 1502 1503 1523 1474 1471 1468 1470 1477 1475 1476 1482 1485 1489 1490 1495 1496 1488 1491 1491 1487 1491 1498 1490 1491 1490 1503 1504
1419 1423 1429 1433 1437 1446 1453 1461 1464 1469 1473 1477 1481 1489 1494 1496 1499 1502 1501 1502 1503 1514 1515 1473 1464 1465 1471 1472 1473 1474 1477 1483 1484 1487 1487 1489 1483 1485 1485 1483 1487 1489 1491 1499 1503 1508 1527
1404 1409 1416 1420 1425 1433 1442 1451 1457 1462 1466 1472 1477 1483 1488 1491 1494 1499 1500 1501 1507 1514 1478 1468 1463 1462 1466 1470 1473 1473 1476 1482 1489 1496 1496 1488 1485 1483 1483 1489 1488 1491 1503 1522 1522 1534 1533
1389 1395 1403 1407 1413 1421 1430 1439 1448 1455 1460 1467 1473 1478 1481 1486 1493 1496 1499 1501 1500 1482 1478 1461 1457 1462 1468 1466 1471 1473 1479 1485 1481 1485 1499 1501 1507 1485 1485 1488 1492 1493 1500 1525 1525 1539 1519
1373 1381 1388 1394 1400 1410 1420 1428 1438 1447 1454 1462 1470 1473 1475 1479 1488 1492 1498 1491 1480 1470 1466 1463 1457 1466 1468 1464 1466 1472 1478 1482 1478 1479 1494 1503 1497 1484 1483 1484 1483 1493 1502 1500 1522 1533 1531
1356 1365 1374 1381 1388 1397 1408 1419 1428 1439 1447 1455 1463 1468 1467 1475 1484 1489 1490 1475 1469 1463 1462 1460 1463 1458 1468 1466 1469 1471 1476 1469 1472 1472 1471 1486 1495 1485 1485 1483 1483 1487 1492 1508 1518 1522 1525
1338 1348 1359 1368 1375 1384 1395 1407 1419 1430 1440 1449 1460 1463 1460 1470 1479 1483 1470 1466 1468 1460 1463 1463 1460 1456 1457 1460 1464 1470 1470 1466 1464 1468 1471 1479 1488 1493 1485 1487 1487 1493 1495 1499 1505 1519 1527
1320 1331 1343 1355 1364 1374 1384 1396 1410 1422 1433 1442 1449 1452 1453 1462 1470 1464 1460 1462 1463 1461 1463 1462 1458 1457 1454 1455 1460 1463 1466 1461 1457 1461 1474 1473 1485 1506 1487 1478 1479 1482 1487 1494 1520 1509 1528
1303 1314 1328 1342 1353 1366 1375 1386 1399 1413 1422 1431 1437 1444 1450 1454 1453 1445 1454 1458 1459 1457 1458 1460 1457 1453 1449 1452 1460 1457 1458 1452 1454 1458 1465 1469 1486 1508 1496 1486 1480 1481 1480 1485 1498 1510 1511
1285 1297 1312 1327 1342 1353 1368 1379 1389 1404 1416 1425 1431 1436 1441 1444 1435 1439 1448 1450 1455 1451 1454 1456 1455 1451 1450 1446 1445 1453 1454 1451 1452 1455 1453 1457 1477 1483 1495 1488 1482 1484 1480 1482 1490 1514 1507
1270 1282 1297 1313 1329 1343 1357 1369 1382 1396 1408 1417 1417 1414 1411 1419 1422 1430 1439 1441 1447 1446 1448 1451 1454 1451 1451 1454 1448 1450 1450 1452 1452 1454 1457 1456 1471 1475 1475 1473 1474 1475 1477 1483 1486 1484 1494
1255 1268 1284 1301 1318 1332 1346 1359 1373 1388 1400 1408 1406 1402 1406 1405 1420 1428 1431 1432 1434 1439 1440 1443 1448 1443 1447 1455 1450 1451 1446 1448 1451 1453 1456 1457 1475 1472 1479 1477 1477 1477 1476 1478 1479 1476 1479
1244 1256 1274 1291 1309 1323 1337 1351 1365 1379 1391 1391 1399 1396 1400 1402 1410 1419 1407 1420 1426 1437 1438 1436 1438 1442 1444 1442 1439 1439 1436 1434 1437 1447 1457 1460 1474 1485 1486 1487 1484 1497 1480 1474 1471 1468 1468
1236 1249 1266 1284 1301 1316 1330 1345 1357 1372 1377 1385 1391 1395 1395 1394 1400 1395 1408 1420 1424 1424 1432 1432 1435 1441 1437 1437 1438 1439 1438 1439 1442 1445 1447 1463 1472 1487 1497 1494 1508 1470 1463 1464 1467 1467 1464
1226 1245 1262 1281 1297 1312 1326 1340 1351 1362 1371 1382 1386 1392 1391 1393 1393 1399 1407 1415 1424 1427 1429 1432 1430 1430 1435 1437 1444 1448 1459 1450 1451 1451 1451 1451 1469 1490 1493 1497 1481 1463 1463 1465 1466 1467 1463
1227 1245 1263 1279 1295 1308 1321 1335 1347 1356 1366 1378 1384 1388 1389 1388 1383 1394 1403 1408 1410 1416 1428 1424 1429 1429 1432 1438 1449 1450 1460 1453 1460 1455 1455 1457 1463 1473 1498 1490 1491 1465 1454 1454 1457 1481 1463
1232 1248 1265 1279 1293 1306 1319 1331 1341 1351 1362 1372 1378 1384 1391 1390 1385 1388 1391 1398 1409 1412 1414 1419 1421 1425 1427 1442 1455 1453 1454 1443 1458 1463 1468 1474 1481 1481 1499 1495 1477 1454 1451 1454 1472 1472 1458
1243 1256 1269 1282 1294 1306 1317 1327 1337 1348 1358 1368 1377 1380 1385 1388 1386 1386 1389 1392 1400 1403 1404 1410 1421 1420 1428 1435 1442 1446 1449 1446 1451 1449 1454 1459 1475 1487 1493 1494 1474 1444 1450 1458 1452 1449 1453
1252 1263 1274 1285 1296 1306 1317 1326 1336 1347 1358 1367 1375 1378 1388 1391 1386 1383 1382 1384 1386 1391 1399 1403 1402 1404 1409 1424 1432 1436 1443 1449 1445 1457 1444 1452 1450 1459 1461 1459 1443 1442 1442 1443 1444 1447 1454